Heraklion, Greece

8:01 AM EEST on April 28, 2017 (GMT +0300)
Nikos Kazantzakis

Weather History for LGIR - March, 2013

Change the Weather History Date:

Saturday, March 2, 2013

  Actual Average Record
Temperature  
Mean Temperature 52 °F -  
Max Temperature 60 °F 62 °F 71 °F (2002)
Min Temperature 43 °F 50 °F 41 °F (2012)
Degree Days  
Heating Degree Days 14    
Growing Degree Days 2 (Base 50)    
Moisture  
Dew Point 44 °F    
Average Humidity 74    
Maximum Humidity 87    
Minimum Humidity 55    
Precipitation  
Precipitation 0.00 in 0.07 in - ()
Sea Level Pressure  
Sea Level Pressure 29.90 in    
Wind  
Wind Speed 9 mph ()    
Max Wind Speed 16 mph    
Max Gust Speed -    
Visibility 6.4 miles    
Events      
Averages and records for this station are not official NWS values.
T = Trace of Precipitation, MM = Missing Value Source: Averaged Metar Reports

Daily Weather History Graph

Daily Weather History Graph

Search for Another Location

Airport or City:

Trip Planner

Search our weather history database for the weather conditions in past years. The results will help you decide how hot, cold, wet, or windy it might be!

Date:

Astronomy

Mar. 02, 2013 Rise Set
Actual Time 6:47 AM EET 6:15 PM EET
Civil Twilight 6:22 AM EET 6:41 PM EET
Nautical Twilight 5:52 AM EET 7:10 PM EET
Astronomical Twilight 5:23 AM EET 7:40 PM EET
Moon 11:20 PM EET (3/2) 9:14 AM EET (3/2)
Length of Visible Light 12h 18m
Length of Day
11h 27m
Waning Gibbous, 77% of the Moon is Illuminated
Mar 2
Waning Gibbous
Mar 4
Last Quarter
Mar 11
New
Mar 19
First Quarter
Mar 27
Full

Hourly Weather History & Observations

Time (EET) Temp. Windchill Dew Point Humidity Pressure Visibility Wind Dir Wind Speed Gust Speed Precip Events Conditions
12:50 AM 42.8 °F 38.0 °F 39.2 °F 87% 30.01 in 6.2 mi South 8.1 mph - N/A   Partly Cloudy
1:20 AM 42.8 °F 38.0 °F 39.2 °F 87% 30.01 in 6.2 mi South 8.1 mph - N/A   Partly Cloudy
1:50 AM 42.8 °F 38.0 °F 39.2 °F 87% 29.98 in 6.2 mi South 8.1 mph - N/A   Partly Cloudy
2:00 AM 44 °F - 39 °F 78% 29.99 in 6 mi South 8.1 mph - -   Scattered Clouds
2:20 AM 42.8 °F 37.5 °F 39.2 °F 87% 29.98 in 6.2 mi South 9.2 mph - N/A   Partly Cloudy
2:50 AM 42.8 °F 40.1 °F 39.2 °F 87% 29.98 in 6.2 mi SSW 4.6 mph - N/A   Partly Cloudy
3:20 AM 42.8 °F 40.1 °F 39.2 °F 87% 29.98 in 6.2 mi SSW 4.6 mph - N/A   Partly Cloudy
3:50 AM 42.8 °F 41.1 °F 39.2 °F 87% 29.98 in 6.2 mi SSW 3.5 mph - N/A   Partly Cloudy
4:20 AM 42.8 °F 38.6 °F 39.2 °F 87% 29.98 in 6.2 mi SSW 6.9 mph - N/A   Partly Cloudy
4:50 AM 42.8 °F 37.0 °F 39.2 °F 87% 29.98 in 6.2 mi South 10.4 mph - N/A   Partly Cloudy
5:20 AM 42.8 °F 38.6 °F 39.2 °F 87% 29.95 in 6.2 mi SSW 6.9 mph - N/A   Partly Cloudy
5:50 AM 42.8 °F 36.6 °F 39.2 °F 87% 29.95 in 6.2 mi South 11.5 mph - N/A   Partly Cloudy
6:20 AM 42.8 °F 37.0 °F 39.2 °F 87% 29.95 in 6.2 mi South 10.4 mph - N/A   Partly Cloudy
6:50 AM 42.8 °F 37.0 °F 39.2 °F 87% 29.95 in 6.2 mi South 10.4 mph - N/A   Partly Cloudy
7:20 AM 42.8 °F 37.0 °F 37.4 °F 81% 29.95 in 6.2 mi South 10.4 mph - N/A   Partly Cloudy
7:50 AM 44.6 °F 38.8 °F 39.2 °F 81% 29.95 in 6.2 mi South 11.5 mph - N/A   Partly Cloudy
8:00 AM 44 °F - 39 °F 77% 29.96 in 9 mi South 11.5 mph - -   Scattered Clouds
8:20 AM 44.6 °F 39.2 °F 39.2 °F 81% 29.95 in 6.2 mi South 10.4 mph - N/A   Partly Cloudy
8:50 AM 50.0 °F - 42.8 °F 76% 29.95 in - South 8.1 mph - N/A   Clear
9:20 AM 50.0 °F - 42.8 °F 76% 29.95 in - South 8.1 mph - N/A   Clear
9:50 AM 55.4 °F - 46.4 °F 72% 29.95 in - East 9.2 mph - N/A   Clear
10:20 AM 55.4 °F - 46.4 °F 72% 29.95 in - East 9.2 mph - N/A   Clear
10:50 AM 57.2 °F - 46.4 °F 67% 29.92 in 6.2 mi East 13.8 mph - N/A   Mostly Cloudy
11:20 AM 57.2 °F - 46.4 °F 67% 29.92 in 6.2 mi East 13.8 mph - N/A   Mostly Cloudy
11:50 AM 57.2 °F - 46.4 °F 67% 29.92 in 6.2 mi East 12.7 mph - N/A   Mostly Cloudy
12:20 PM 57.2 °F - 46.4 °F 67% 29.92 in 6.2 mi East 12.7 mph - N/A   Mostly Cloudy
12:50 PM 59.0 °F - 46.4 °F 63% 29.89 in 6.2 mi East 12.7 mph - N/A   Mostly Cloudy
1:20 PM 59.0 °F - 46.4 °F 63% 29.89 in 6.2 mi East 12.7 mph - N/A   Mostly Cloudy
1:50 PM 60.8 °F - 50.0 °F 68% 29.86 in 6.2 mi East 11.5 mph - N/A   Mostly Cloudy
2:00 PM 61 °F - 49 °F 55% 29.87 in 9 mi East 11.5 mph - -   Scattered Clouds
2:20 PM 60.8 °F - 50.0 °F 68% 29.86 in 6.2 mi East 11.5 mph - N/A   Mostly Cloudy
2:50 PM 60.8 °F - 50.0 °F 68% 29.83 in 6.2 mi South 16.1 mph - N/A   Mostly Cloudy
3:50 PM 60.8 °F - 46.4 °F 59% 29.83 in 6.2 mi SSE 16.1 mph - N/A   Mostly Cloudy
4:20 PM 60.8 °F - 46.4 °F 59% 29.83 in 6.2 mi SSE 16.1 mph - N/A   Mostly Cloudy
4:50 PM 60.8 °F - 46.4 °F 59% 29.83 in 6.2 mi SSE 10.4 mph - N/A   Mostly Cloudy
5:20 PM 60.8 °F - 46.4 °F 59% 29.83 in 6.2 mi SSE 10.4 mph - N/A   Mostly Cloudy
5:50 PM 60.8 °F - 46.4 °F 59% 29.80 in 6.2 mi South 16.1 mph - N/A   Mostly Cloudy
6:20 PM 60.8 °F - 46.4 °F 59% 29.80 in 6.2 mi South 16.1 mph - N/A   Mostly Cloudy
6:50 PM 55.4 °F - 46.4 °F 72% 29.80 in 6.2 mi South 12.7 mph - N/A   Mostly Cloudy
7:20 PM 55.4 °F - 46.4 °F 72% 29.80 in 6.2 mi South 12.7 mph - N/A   Mostly Cloudy
7:50 PM 55.4 °F - 46.4 °F 72% 29.83 in 6.2 mi SSE 6.9 mph - N/A   Mostly Cloudy
8:00 PM 55 °F - 46 °F 63% 29.84 in 9 mi SSE 6.9 mph - -   Scattered Clouds
8:20 PM 55.4 °F - 46.4 °F 72% 29.83 in 6.2 mi SSE 6.9 mph - N/A   Mostly Cloudy
8:50 PM 55.4 °F - 46.4 °F 72% 29.83 in 6.2 mi SSE 8.1 mph - N/A   Scattered Clouds
9:20 PM 55.4 °F - 46.4 °F 72% 29.83 in 6.2 mi SSE 8.1 mph - N/A   Scattered Clouds
9:50 PM 55.4 °F - 46.4 °F 72% 29.83 in 6.2 mi SSE 13.8 mph - N/A   Scattered Clouds
10:20 PM 55.4 °F - 46.4 °F 72% 29.83 in 6.2 mi SSE 13.8 mph - N/A   Scattered Clouds
10:50 PM 53.6 °F - 46.4 °F 77% 29.83 in 6.2 mi South 9.2 mph - N/A   Scattered Clouds
11:20 PM 53.6 °F - 46.4 °F 77% 29.83 in 6.2 mi South 9.2 mph - N/A   Scattered Clouds
11:50 PM 53.6 °F - 46.4 °F 77% 29.80 in 6.2 mi South 6.9 mph - N/A   Scattered Clouds